Location: Casco Volunteer Fire Department
(44.5576°N, 87.6146°W)
Time: 05:14:15
(UTC+00:00)

SMAP - Pass Details

Date: 22 January 2026
Orbit: 681 x 683 km, 98.1° (Epoch: 11 February)

Event Time Altitude Azimuth Distance (km) Brightness Sun altitude
Rises 12:40:11 0° 8° (N) 3,053 6.3 -7.1°
Reaches altitude 10° 12:42:29 10° 3° (N) 2,133 5.4 -6.8°
Maximum altitude 12:47:00 51° 289° (WNW) 858 3.2 -6.0°
Drops below altitude 10° 12:51:28 10° 214° (SSW) 2,118 5.5 -5.3°
Sets 12:53:44 0° 209° (SSW) 3,028 6.3 -4.9°
